N945W KRDU-KATL

Flight info

Callsign N945W
Flight time 1h 15m
Altitude 40000
Route SHPRD4 SHPRD LEAVI OZZZI1
Aircraft LJ35/M-SGHRWXY/SB1

Departure

Time 2026-05-06 23:40
Airport Raleigh-Durham International Airport (KRDU)

Arrival

Time 2026-05-07 00:55
Airport Hartsfield Jackson Atlanta International Airport (KATL)
Time Latitude Longitude Altitude Speed Heading
2026-05-06 23:20 35.88319 -78.78659 391 ft 0 kts 140°
2026-05-06 23:34 35.88317 -78.78656 391 ft 2 kts 111°
2026-05-06 23:35 35.88357 -78.78649 391 ft 12 kts 348°
2026-05-06 23:35 35.88420 -78.78692 392 ft 8 kts 22°
2026-05-06 23:35 35.88463 -78.78642 394 ft 10 kts 45°
2026-05-06 23:35 35.88521 -78.78571 396 ft 14 kts 44°
2026-05-06 23:36 35.88597 -78.78477 398 ft 17 kts 45°
2026-05-06 23:36 35.88683 -78.78371 401 ft 18 kts 45°
2026-05-06 23:36 35.88776 -78.78256 400 ft 20 kts 45°
2026-05-06 23:36 35.88876 -78.78133 402 ft 19 kts 44°
2026-05-06 23:37 35.88961 -78.78025 401 ft 17 kts 50°
2026-05-06 23:37 35.89011 -78.77887 403 ft 17 kts 46°
2026-05-06 23:37 35.89093 -78.77786 406 ft 17 kts 44°
2026-05-06 23:37 35.89167 -78.77692 408 ft 14 kts 45°
2026-05-06 23:38 35.89225 -78.77635 411 ft 6 kts 338°
2026-05-06 23:38 35.89260 -78.77677 412 ft 8 kts 315°
2026-05-06 23:38 35.89303 -78.77730 413 ft 10 kts 314°
2026-05-06 23:38 35.89357 -78.77796 414 ft 9 kts 315°
2026-05-06 23:39 35.89357 -78.77841 413 ft 0 kts 224°
2026-05-06 23:39 35.89224 -78.78006 408 ft 68 kts 225°
2026-05-06 23:39 35.88676 -78.78678 436 ft 145 kts 225°
2026-05-06 23:40 35.87921 -78.79609 1184 ft 165 kts 226°
2026-05-06 23:40 35.87024 -78.80719 1912 ft 195 kts 225°
2026-05-06 23:40 35.86014 -78.81910 2943 ft 207 kts 225°
2026-05-06 23:40 35.84927 -78.83185 3852 ft 224 kts 226°
2026-05-06 23:41 35.83840 -78.84595 4975 ft 224 kts 236°
2026-05-06 23:41 35.83259 -78.86377 5991 ft 233 kts 262°
2026-05-06 23:41 35.83275 -78.88340 7251 ft 225 kts 271°
2026-05-06 23:41 35.83346 -78.90325 8121 ft 238 kts 270°
2026-05-06 23:42 35.83364 -78.92413 8989 ft 248 kts 268°
2026-05-06 23:42 35.83351 -78.94565 9994 ft 251 kts 268°
2026-05-06 23:42 35.83317 -78.96733 10878 ft 256 kts 268°
2026-05-06 23:42 35.83312 -78.98949 11778 ft 261 kts 270°
2026-05-06 23:43 35.83343 -79.01304 12038 ft 289 kts 270°
2026-05-06 23:43 35.83374 -79.03758 13027 ft 286 kts 270°
2026-05-06 23:43 35.83389 -79.06235 13832 ft 292 kts 270°
2026-05-06 23:43 35.83402 -79.08744 14598 ft 294 kts 270°
2026-05-06 23:44 35.83422 -79.11274 15406 ft 295 kts 271°
2026-05-06 23:44 35.83442 -79.13814 16240 ft 297 kts 271°
2026-05-06 23:44 35.83459 -79.16366 17013 ft 299 kts 271°
2026-05-06 23:44 35.83475 -79.18951 17802 ft 301 kts 271°
2026-05-06 23:45 35.83491 -79.21541 18510 ft 304 kts 271°
2026-05-06 23:45 35.83508 -79.24155 19166 ft 306 kts 271°
2026-05-06 23:45 35.83524 -79.26785 19809 ft 308 kts 271°
2026-05-06 23:45 35.83537 -79.29400 20433 ft 310 kts 270°
2026-05-06 23:46 35.83404 -79.32067 21045 ft 314 kts 265°
2026-05-06 23:46 35.83181 -79.34791 21692 ft 316 kts 265°
2026-05-06 23:46 35.82974 -79.37460 22302 ft 318 kts 266°
2026-05-06 23:46 35.82777 -79.40189 22903 ft 322 kts 266°
2026-05-06 23:47 35.82567 -79.43008 22966 ft 339 kts 265°
2026-05-06 23:47 35.82338 -79.45966 22977 ft 353 kts 265°
2026-05-06 23:47 35.82106 -79.48968 22976 ft 350 kts 265°
2026-05-06 23:47 35.81879 -79.51944 22977 ft 347 kts 265°
2026-05-06 23:48 35.81542 -79.54870 22977 ft 345 kts 260°
2026-05-06 23:48 35.81037 -79.57749 22976 ft 342 kts 260°
2026-05-06 23:48 35.80544 -79.60614 22978 ft 341 kts 260°
2026-05-06 23:48 35.80067 -79.63464 22974 ft 340 kts 260°
2026-05-06 23:49 35.79593 -79.66278 22978 ft 338 kts 260°
2026-05-06 23:49 35.79103 -79.69149 22974 ft 337 kts 260°
2026-05-06 23:49 35.78624 -79.71942 22971 ft 336 kts 260°
2026-05-06 23:49 35.78142 -79.74761 22979 ft 336 kts 260°
2026-05-06 23:50 35.77662 -79.77577 22982 ft 336 kts 260°
2026-05-06 23:50 35.76700 -79.83193 23005 ft 334 kts 260°
2026-05-06 23:50 35.76219 -79.85983 23760 ft 324 kts 260°
2026-05-06 23:51 35.75754 -79.88673 24620 ft 318 kts 260°
2026-05-06 23:51 35.75295 -79.91344 25289 ft 321 kts 260°
2026-05-06 23:51 35.74836 -79.94002 25915 ft 323 kts 260°
2026-05-06 23:51 35.74366 -79.96718 26494 ft 326 kts 260°
2026-05-06 23:52 35.73892 -79.99454 27067 ft 329 kts 260°
2026-05-06 23:52 35.73413 -80.02222 27662 ft 331 kts 260°
2026-05-06 23:52 35.72929 -80.05011 28212 ft 334 kts 259°
2026-05-06 23:52 35.72440 -80.07829 28779 ft 337 kts 259°
2026-05-06 23:53 35.71944 -80.10666 29301 ft 340 kts 259°
2026-05-06 23:53 35.71445 -80.13526 29833 ft 343 kts 259°
2026-05-06 23:53 35.70942 -80.16409 30298 ft 346 kts 259°
2026-05-06 23:53 35.70436 -80.19303 30827 ft 344 kts 259°
2026-05-06 23:54 35.69932 -80.22177 31380 ft 343 kts 259°
2026-05-06 23:54 35.69429 -80.25043 31929 ft 342 kts 260°
2026-05-06 23:54 35.68928 -80.27895 32481 ft 340 kts 260°
2026-05-06 23:54 35.68426 -80.30745 32997 ft 339 kts 260°
2026-05-06 23:55 35.67933 -80.33548 33494 ft 338 kts 260°
2026-05-06 23:55 35.67433 -80.36377 33958 ft 338 kts 260°
2026-05-06 23:55 35.66934 -80.39202 34370 ft 338 kts 261°
2026-05-06 23:55 35.66435 -80.42024 34741 ft 338 kts 261°
2026-05-06 23:56 35.65936 -80.44837 35242 ft 334 kts 261°
2026-05-06 23:56 35.65413 -80.47609 35779 ft 331 kts 258°
2026-05-06 23:56 35.64565 -80.50250 36294 ft 331 kts 253°
2026-05-06 23:56 35.63682 -80.52839 36818 ft 327 kts 254°
2026-05-06 23:57 35.62830 -80.55385 37336 ft 323 kts 254°
2026-05-06 23:57 35.61960 -80.57976 37860 ft 320 kts 254°
2026-05-06 23:57 35.61125 -80.60440 38364 ft 317 kts 255°
2026-05-06 23:57 35.60280 -80.62933 38824 ft 313 kts 255°
2026-05-06 23:58 35.59444 -80.65402 39214 ft 311 kts 255°
2026-05-06 23:58 35.58607 -80.67876 39596 ft 310 kts 255°
2026-05-06 23:58 35.57791 -80.70286 39933 ft 309 kts 255°
2026-05-06 23:58 35.56954 -80.72761 39956 ft 318 kts 255°
2026-05-06 23:59 35.55214 -80.77881 39975 ft 330 kts 255°
2026-05-06 23:59 35.53436 -80.83094 39984 ft 330 kts 255°
2026-05-07 00:00 35.51655 -80.88314 39983 ft 330 kts 255°
2026-05-07 00:00 35.50190 -80.92615 39980 ft 330 kts 255°
2026-05-07 00:01 35.48111 -80.98687 39984 ft 330 kts 255°
2026-05-07 00:01 35.46330 -81.03893 39987 ft 330 kts 254°
2026-05-07 00:02 35.44542 -81.09096 39986 ft 330 kts 254°
2026-05-07 00:02 35.42767 -81.14254 39982 ft 331 kts 254°
2026-05-07 00:03 35.40976 -81.19462 39814 ft 332 kts 254°
2026-05-07 00:03 35.40075 -81.22071 39443 ft 332 kts 254°
2026-05-07 00:03 35.39169 -81.24697 38918 ft 335 kts 254°
2026-05-07 00:04 35.38259 -81.27329 38356 ft 333 kts 254°
2026-05-07 00:04 35.37359 -81.29926 37745 ft 330 kts 253°
2026-05-07 00:04 35.36476 -81.32479 37144 ft 328 kts 253°
2026-05-07 00:04 35.35589 -81.35046 36564 ft 327 kts 253°
2026-05-07 00:05 35.34700 -81.37612 36011 ft 327 kts 252°
2026-05-07 00:05 35.33810 -81.40176 35459 ft 326 kts 252°
2026-05-07 00:05 35.32922 -81.42736 34924 ft 329 kts 252°
2026-05-07 00:05 35.32016 -81.45349 34396 ft 336 kts 251°
2026-05-07 00:06 35.31093 -81.48002 34024 ft 340 kts 251°
2026-05-07 00:06 35.30156 -81.50688 34024 ft 344 kts 251°
2026-05-07 00:06 35.28262 -81.56122 34022 ft 349 kts 251°
2026-05-07 00:07 35.26652 -81.60719 34024 ft 352 kts 251°
2026-05-07 00:07 35.24726 -81.66261 34024 ft 355 kts 251°
2026-05-07 00:08 35.22782 -81.71788 34026 ft 357 kts 250°
2026-05-07 00:08 35.20806 -81.77427 34008 ft 359 kts 251°
2026-05-07 00:09 35.18829 -81.83051 33990 ft 361 kts 250°
2026-05-07 00:09 35.16851 -81.88664 33977 ft 362 kts 250°
2026-05-07 00:10 35.14853 -81.94328 33972 ft 363 kts 250°
2026-05-07 00:10 35.12826 -82.00051 33981 ft 364 kts 250°
2026-05-07 00:11 35.10811 -82.05750 33982 ft 365 kts 250°
2026-05-07 00:11 35.08791 -82.11448 33988 ft 366 kts 250°
2026-05-07 00:12 35.06776 -82.17116 33996 ft 366 kts 250°
2026-05-07 00:12 35.04740 -82.22834 33998 ft 367 kts 250°
2026-05-07 00:13 35.02709 -82.28544 33997 ft 367 kts 250°
2026-05-07 00:13 35.00380 -82.34109 33999 ft 371 kts 244°
2026-05-07 00:14 34.97759 -82.39541 33994 ft 371 kts 244°
2026-05-07 00:14 34.94716 -82.44661 33993 ft 386 kts 226°
2026-05-07 00:15 34.92314 -82.46288 33993 ft 406 kts 209°
2026-05-07 00:15 34.89545 -82.47086 33998 ft 420 kts 199°
2026-05-07 00:15 34.83637 -82.47730 34011 ft 429 kts 193°
2026-05-07 00:16 34.77648 -82.48060 34000 ft 431 kts 192°
2026-05-07 00:16 34.71631 -82.48345 33852 ft 434 kts 192°
2026-05-07 00:17 34.68608 -82.48492 33278 ft 433 kts 192°
2026-05-07 00:17 34.65617 -82.48638 32716 ft 427 kts 192°
2026-05-07 00:17 34.62664 -82.48788 32160 ft 421 kts 192°
2026-05-07 00:17 34.59754 -82.48943 31615 ft 417 kts 192°
2026-05-07 00:18 34.56872 -82.49107 31066 ft 412 kts 192°
2026-05-07 00:18 34.54013 -82.49277 30542 ft 409 kts 192°
2026-05-07 00:18 34.51179 -82.49457 30026 ft 406 kts 192°
2026-05-07 00:18 34.48368 -82.49645 29428 ft 404 kts 192°
2026-05-07 00:19 34.45566 -82.49832 28842 ft 402 kts 192°
2026-05-07 00:19 34.42774 -82.50021 28267 ft 400 kts 192°
2026-05-07 00:19 34.40008 -82.50213 27694 ft 397 kts 193°
2026-05-07 00:19 34.37304 -82.50661 27146 ft 388 kts 199°
2026-05-07 00:20 34.34679 -82.51334 26606 ft 384 kts 202°
2026-05-07 00:20 34.32112 -82.52136 26076 ft 379 kts 205°
2026-05-07 00:20 34.29609 -82.53096 25557 ft 375 kts 207°
2026-05-07 00:20 34.27127 -82.54066 25048 ft 376 kts 206°
2026-05-07 00:21 34.24610 -82.54931 24544 ft 376 kts 204°
2026-05-07 00:21 34.22089 -82.55771 24056 ft 375 kts 205°
2026-05-07 00:21 34.19624 -82.56639 23967 ft 361 kts 206°
2026-05-07 00:21 34.17285 -82.57476 23948 ft 348 kts 206°
2026-05-07 00:22 34.14991 -82.58287 23941 ft 338 kts 206°
2026-05-07 00:22 34.12762 -82.59067 23942 ft 329 kts 206°
2026-05-07 00:22 34.10594 -82.59827 23939 ft 320 kts 207°
2026-05-07 00:22 34.08459 -82.60582 23941 ft 321 kts 207°
2026-05-07 00:23 34.06293 -82.61356 23935 ft 329 kts 207°
2026-05-07 00:23 34.04073 -82.62134 23937 ft 335 kts 206°
2026-05-07 00:23 34.01811 -82.62921 23945 ft 341 kts 206°
2026-05-07 00:23 33.99543 -82.63714 23945 ft 345 kts 206°
2026-05-07 00:24 33.97225 -82.64528 23949 ft 349 kts 206°
2026-05-07 00:24 33.94883 -82.65348 23954 ft 352 kts 206°
2026-05-07 00:24 33.92507 -82.66178 23972 ft 355 kts 206°
2026-05-07 00:24 33.90128 -82.67009 23973 ft 358 kts 206°
2026-05-07 00:25 33.87724 -82.67848 23970 ft 360 kts 206°
2026-05-07 00:25 33.85307 -82.68693 23972 ft 362 kts 206°
2026-05-07 00:25 33.82881 -82.69540 23970 ft 364 kts 206°
2026-05-07 00:25 33.80437 -82.70391 23971 ft 365 kts 206°
2026-05-07 00:26 33.77993 -82.71243 23968 ft 367 kts 206°
2026-05-07 00:26 33.75535 -82.72100 23971 ft 368 kts 206°
2026-05-07 00:26 33.73100 -82.72948 23964 ft 369 kts 206°
2026-05-07 00:26 33.70629 -82.73807 23971 ft 370 kts 206°
2026-05-07 00:27 33.68156 -82.74667 23972 ft 370 kts 206°
2026-05-07 00:27 33.65645 -82.75540 23970 ft 371 kts 206°
2026-05-07 00:27 33.63190 -82.76392 23971 ft 372 kts 206°
2026-05-07 00:27 33.60671 -82.77267 23971 ft 372 kts 206°
2026-05-07 00:28 33.58181 -82.78131 23972 ft 373 kts 206°
2026-05-07 00:28 33.55690 -82.78995 23970 ft 373 kts 206°
2026-05-07 00:28 33.53221 -82.79850 23988 ft 373 kts 206°
2026-05-07 00:28 33.50725 -82.80714 23985 ft 374 kts 206°
2026-05-07 00:29 33.48225 -82.81579 23980 ft 374 kts 206°
2026-05-07 00:29 33.45717 -82.82447 23979 ft 375 kts 206°
2026-05-07 00:30 33.38153 -82.85083 23586 ft 384 kts 207°
2026-05-07 00:30 33.35756 -82.86432 23145 ft 374 kts 219°
2026-05-07 00:30 33.33709 -82.88241 22700 ft 363 kts 229°
2026-05-07 00:30 33.32017 -82.90435 22267 ft 355 kts 238°
2026-05-07 00:31 33.30720 -82.92911 21837 ft 349 kts 248°
2026-05-07 00:31 33.29839 -82.95564 21419 ft 345 kts 256°
2026-05-07 00:31 33.29361 -82.98358 21003 ft 343 kts 264°
2026-05-07 00:31 33.29035 -83.01183 20596 ft 343 kts 263°
2026-05-07 00:32 33.28690 -83.04010 20192 ft 343 kts 263°
2026-05-07 00:32 33.28348 -83.06835 19792 ft 342 kts 263°
2026-05-07 00:32 33.28012 -83.09643 19396 ft 340 kts 263°
2026-05-07 00:32 33.27677 -83.12439 19007 ft 339 kts 263°
2026-05-07 00:33 33.27340 -83.15228 18620 ft 338 kts 263°
2026-05-07 00:33 33.27003 -83.18007 18235 ft 338 kts 262°
2026-05-07 00:33 33.26667 -83.20784 17795 ft 337 kts 262°
2026-05-07 00:33 33.26332 -83.23548 17366 ft 336 kts 262°
2026-05-07 00:34 33.25995 -83.26315 16935 ft 335 kts 262°
2026-05-07 00:34 33.25660 -83.29070 16515 ft 335 kts 262°
2026-05-07 00:34 33.25324 -83.31823 16086 ft 334 kts 261°
2026-05-07 00:34 33.24988 -83.34570 15683 ft 332 kts 261°
2026-05-07 00:35 33.24660 -83.37252 15314 ft 328 kts 261°
2026-05-07 00:35 33.24327 -83.39945 14927 ft 326 kts 261°
2026-05-07 00:35 33.24000 -83.42609 14560 ft 324 kts 261°
2026-05-07 00:35 33.23676 -83.45266 14190 ft 322 kts 260°
2026-05-07 00:36 33.23351 -83.47880 13935 ft 313 kts 260°
2026-05-07 00:36 33.23030 -83.50429 13619 ft 307 kts 259°
2026-05-07 00:36 33.22718 -83.52940 13272 ft 303 kts 260°
2026-05-07 00:36 33.22409 -83.55421 12926 ft 300 kts 260°
2026-05-07 00:37 33.22101 -83.57875 12586 ft 298 kts 260°
2026-05-07 00:37 33.21795 -83.60311 12246 ft 296 kts 260°
2026-05-07 00:37 33.21492 -83.62739 11918 ft 295 kts 260°
2026-05-07 00:37 33.21188 -83.65160 11592 ft 295 kts 260°
2026-05-07 00:38 33.20881 -83.67584 11275 ft 294 kts 260°
2026-05-07 00:38 33.20576 -83.69994 10992 ft 291 kts 260°
2026-05-07 00:38 33.20285 -83.72311 10980 ft 279 kts 260°
2026-05-07 00:38 33.20002 -83.74550 10970 ft 267 kts 260°
2026-05-07 00:39 33.19732 -83.76702 10969 ft 257 kts 260°
2026-05-07 00:39 33.19475 -83.78777 10895 ft 251 kts 260°
2026-05-07 00:39 33.19453 -83.80893 10482 ft 262 kts 276°
2026-05-07 00:39 33.20025 -83.83001 10077 ft 272 kts 292°
2026-05-07 00:40 33.21169 -83.84834 9691 ft 280 kts 309°
2026-05-07 00:40 33.22559 -83.86468 9310 ft 280 kts 310°
2026-05-07 00:40 33.23944 -83.88100 8917 ft 279 kts 309°
2026-05-07 00:40 33.25318 -83.89741 8539 ft 279 kts 309°
2026-05-07 00:41 33.26693 -83.91384 8169 ft 279 kts 309°
2026-05-07 00:41 33.28059 -83.93010 7983 ft 272 kts 309°
2026-05-07 00:41 33.29372 -83.94569 7978 ft 260 kts 309°
2026-05-07 00:41 33.30646 -83.96095 7737 ft 260 kts 309°
2026-05-07 00:42 33.31930 -83.97640 7427 ft 263 kts 309°
2026-05-07 00:42 33.33232 -83.99199 7121 ft 265 kts 309°
2026-05-07 00:42 33.34524 -84.00740 6826 ft 266 kts 310°
2026-05-07 00:42 33.36031 -84.02069 6523 ft 275 kts 327°
2026-05-07 00:43 33.37867 -84.02822 6207 ft 284 kts 344°
2026-05-07 00:43 33.39856 -84.02963 5881 ft 285 kts 355°
2026-05-07 00:43 33.41164 -84.02976 5673 ft 281 kts 355°
2026-05-07 00:43 33.43102 -84.03011 5353 ft 276 kts 355°
2026-05-07 00:44 33.44986 -84.03052 5015 ft 265 kts 355°
2026-05-07 00:44 33.46754 -84.03088 4967 ft 243 kts 355°
2026-05-07 00:44 33.48372 -84.03120 4966 ft 222 kts 354°
2026-05-07 00:44 33.49848 -84.03139 4964 ft 205 kts 354°
2026-05-07 00:45 33.51282 -84.03140 4965 ft 207 kts 354°
2026-05-07 00:45 33.52730 -84.03147 4970 ft 208 kts 354°
2026-05-07 00:45 33.54189 -84.03162 4973 ft 210 kts 354°
2026-05-07 00:45 33.55637 -84.03166 4972 ft 211 kts 354°
2026-05-07 00:46 33.57103 -84.03173 4969 ft 210 kts 355°
2026-05-07 00:46 33.58558 -84.03182 4969 ft 209 kts 354°
2026-05-07 00:46 33.60014 -84.03183 4975 ft 209 kts 354°
2026-05-07 00:46 33.61396 -84.03520 4973 ft 197 kts 322°
2026-05-07 00:47 33.62299 -84.04648 4974 ft 184 kts 296°
2026-05-07 00:47 33.62964 -84.05921 4973 ft 173 kts 295°
2026-05-07 00:47 33.63593 -84.07136 4968 ft 172 kts 294°
2026-05-07 00:47 33.64221 -84.08360 4965 ft 173 kts 294°
2026-05-07 00:48 33.64671 -84.09661 4961 ft 168 kts 282°
2026-05-07 00:48 33.64888 -84.11004 4978 ft 162 kts 267°
2026-05-07 00:48 33.64935 -84.12350 4981 ft 155 kts 265°
2026-05-07 00:48 33.64955 -84.13605 4966 ft 147 kts 265°
2026-05-07 00:49 33.64953 -84.14806 4960 ft 138 kts 264°
2026-05-07 00:49 33.64956 -84.15895 4903 ft 125 kts 262°
2026-05-07 00:49 33.64957 -84.16918 4761 ft 121 kts 262°
2026-05-07 00:49 33.64953 -84.17941 4604 ft 123 kts 262°
2026-05-07 00:50 33.64953 -84.18972 4451 ft 125 kts 262°
2026-05-07 00:50 33.64952 -84.20015 4290 ft 126 kts 262°
2026-05-07 00:50 33.64951 -84.21077 4124 ft 128 kts 263°
2026-05-07 00:50 33.64950 -84.22156 3964 ft 130 kts 263°
2026-05-07 00:51 33.64951 -84.23258 3796 ft 134 kts 264°
2026-05-07 00:51 33.64954 -84.24368 3624 ft 132 kts 263°
2026-05-07 00:51 33.64955 -84.25456 3451 ft 128 kts 263°
2026-05-07 00:51 33.64956 -84.26519 3294 ft 128 kts 263°
2026-05-07 00:52 33.64956 -84.27586 3127 ft 127 kts 263°
2026-05-07 00:52 33.64956 -84.28642 2967 ft 127 kts 263°
2026-05-07 00:52 33.64956 -84.29702 2802 ft 127 kts 263°
2026-05-07 00:52 33.64956 -84.30748 2644 ft 127 kts 263°
2026-05-07 00:53 33.64961 -84.31821 2472 ft 127 kts 264°
2026-05-07 00:53 33.64974 -84.32888 2308 ft 128 kts 264°
2026-05-07 00:53 33.64964 -84.33958 2131 ft 131 kts 265°
2026-05-07 00:53 33.64982 -84.35058 1956 ft 133 kts 267°
2026-05-07 00:54 33.64990 -84.36178 1782 ft 134 kts 262°
2026-05-07 00:54 33.64955 -84.37287 1633 ft 132 kts 266°
2026-05-07 00:54 33.64957 -84.38425 1421 ft 136 kts 270°
2026-05-07 00:54 33.64958 -84.39559 1278 ft 136 kts 267°
2026-05-07 00:55 33.64955 -84.40702 1079 ft 136 kts 268°
2026-05-07 00:55 33.64952 -84.41743 1000 ft 107 kts 268°
2026-05-07 00:55 33.64948 -84.42305 1006 ft 33 kts 270°
2026-05-07 00:55 33.64954 -84.42537 1008 ft 23 kts 271°
2026-05-07 00:56 33.64955 -84.42725 1009 ft 23 kts 270°
2026-05-07 00:56 33.64981 -84.42872 1009 ft 17 kts 306°
2026-05-07 00:56 33.65039 -84.42901 1010 ft 7 kts 26°
2026-05-07 00:56 33.65048 -84.42896 1010 ft 0 kts 32°
2026-05-07 00:57 33.65059 -84.42883 1010 ft 8 kts 54°
2026-05-07 00:57 33.65064 -84.42775 1009 ft 17 kts 90°
2026-05-07 00:58 33.65066 -84.42643 1008 ft 13 kts 81°
2026-05-07 00:58 33.65121 -84.42591 1008 ft 13 kts 357°
2026-05-07 00:58 33.65194 -84.42524 1009 ft 17 kts 73°
2026-05-07 00:58 33.65210 -84.42442 1007 ft 0 kts 90°